Time,TemperatureF,DewpointF,PressureIn,WindDirection,WindDirectionDegrees,WindSpeedMPH,WindSpeedGustMPH,Humidity,HourlyPrecipIn,Conditions,Clouds,dailyrainin,SoftwareType,DateUTC
2014-10-31 00:04:00,28.8,25.1,30.21,WNW,292,2.3,7.4,86,0.00,,SKC,0.00,VWS V15.00,2014-10-31 05:04:00,
2014-10-31 00:09:00,28.6,24.9,30.24,WNW,292,2.8,5.5,86,0.00,,SKC,0.00,VWS V15.00,2014-10-31 05:09:00,
2014-10-31 00:15:00,28.9,25.0,30.24,WNW,292,2.8,4.3,85,0.00,,SKC,0.00,VWS V15.00,2014-10-31 05:15:00,
2014-10-31 00:20:00,29.1,24.9,30.24,NNW,338,3.1,7.8,84,0.00,,SKC,0.00,VWS V15.00,2014-10-31 05:20:00,
2014-10-31 00:26:00,29.3,24.5,30.24,NNW,338,2.3,5.1,82,0.00,,SKC,0.00,VWS V15.00,2014-10-31 05:26:00,
2014-10-31 00:32:00,29.5,24.1,30.24,NNW,338,2.8,5.5,80,0.00,,SKC,0.00,VWS V15.00,2014-10-31 05:32:00,
2014-10-31 00:37:00,29.7,23.4,30.24,WNW,292,3.1,5.9,77,0.00,,SKC,0.00,VWS V15.00,2014-10-31 05:37:00,
2014-10-31 00:43:00,29.7,22.1,30.24,NNW,338,3.9,6.7,73,0.00,,SKC,0.00,VWS V15.00,2014-10-31 05:43:00,
2014-10-31 00:49:00,29.8,22.2,30.24,North,0,2.6,5.5,73,0.00,,SKC,0.00,VWS V15.00,2014-10-31 05:49:00,
2014-10-31 00:54:00,29.7,21.8,30.24,North,0,3.3,7.0,72,0.00,,SKC,0.00,VWS V15.00,2014-10-31 05:54:00,
2014-10-31 01:00:00,29.8,21.9,30.27,NNW,338,2.3,9.4,72,0.00,,SKC,0.00,VWS V15.00,2014-10-31 06:00:00,
2014-10-31 01:05:00,29.8,21.6,30.27,WNW,292,3.3,8.2,71,0.00,,SKC,0.00,VWS V15.00,2014-10-31 06:05:00,
2014-10-31 01:11:00,30.0,21.8,30.24,NNW,338,5.7,8.6,71,0.00,,SKC,0.00,VWS V15.00,2014-10-31 06:11:00,
2014-10-31 01:17:00,30.0,21.8,30.24,WNW,292,2.3,6.7,71,0.00,,SKC,0.00,VWS V15.00,2014-10-31 06:17:00,
2014-10-31 01:22:00,30.0,21.1,30.24,NNE,22,3.3,6.7,69,0.00,,SKC,0.00,VWS V15.00,2014-10-31 06:22:00,
2014-10-31 01:28:00,30.0,21.4,30.27,WNW,292,2.3,7.4,70,0.00,,SKC,0.00,VWS V15.00,2014-10-31 06:28:00,
2014-10-31 01:33:00,29.8,21.3,30.27,NNW,338,3.1,7.4,70,0.00,,SKC,0.00,VWS V15.00,2014-10-31 06:33:00,
2014-10-31 01:39:00,29.8,21.3,30.27,NNW,338,3.6,7.4,70,0.00,,SKC,0.00,VWS V15.00,2014-10-31 06:39:00,
2014-10-31 01:45:00,29.8,20.9,30.27,NNW,338,4.1,8.2,69,0.00,,SKC,0.00,VWS V15.00,2014-10-31 06:45:00,
2014-10-31 01:50:00,29.7,20.8,30.27,WSW,248,5.4,8.2,69,0.00,,SKC,0.00,VWS V15.00,2014-10-31 06:50:00,
2014-10-31 01:55:00,29.8,20.9,30.27,NNE,22,1.0,7.0,69,0.00,,SKC,0.00,VWS V15.00,2014-10-31 06:55:00,
2014-10-31 02:01:00,29.7,19.7,30.27,NNW,338,2.6,9.4,66,0.00,,SKC,0.00,VWS V15.00,2014-10-31 07:01:00,
2014-10-31 02:06:00,29.7,19.7,30.27,NW,315,2.8,14.1,66,0.00,,SKC,0.00,VWS V15.00,2014-10-31 07:06:00,
2014-10-31 02:12:00,29.7,20.1,30.27,NNW,338,1.5,7.0,67,0.00,,SKC,0.00,VWS V15.00,2014-10-31 07:12:00,
2014-10-31 02:17:00,29.5,19.9,30.27,NE,45,3.6,6.3,67,0.00,,SKC,0.00,VWS V15.00,2014-10-31 07:17:00,
2014-10-31 02:22:00,29.5,19.9,30.27,NE,45,3.9,11.4,67,0.00,,SKC,0.00,VWS V15.00,2014-10-31 07:22:00,
2014-10-31 02:28:00,29.5,19.5,30.30,NNE,22,3.6,6.7,66,0.00,,SKC,0.00,VWS V15.00,2014-10-31 07:28:00,
2014-10-31 02:33:00,29.5,20.2,30.30,NNW,338,1.3,6.7,68,0.00,,SKC,0.00,VWS V15.00,2014-10-31 07:33:00,
2014-10-31 02:39:00,29.3,20.1,30.30,NNW,338,4.1,6.3,68,0.00,,SKC,0.00,VWS V15.00,2014-10-31 07:39:00,
2014-10-31 02:45:00,29.1,19.9,30.30,NNW,338,4.1,6.3,68,0.00,,SKC,0.00,VWS V15.00,2014-10-31 07:45:00,
2014-10-31 02:50:00,29.1,19.9,30.30,NW,315,3.6,5.5,68,0.00,,SKC,0.00,VWS V15.00,2014-10-31 07:50:00,
2014-10-31 02:56:00,29.1,19.9,30.30,South,180,3.1,4.7,68,0.00,,SKC,0.00,VWS V15.00,2014-10-31 07:56:00,
2014-10-31 03:02:00,29.1,19.9,30.30,NNW,338,1.8,5.5,68,0.00,,SKC,0.00,VWS V15.00,2014-10-31 08:02:00,
2014-10-31 03:08:00,29.1,19.9,30.30,NNW,338,1.8,5.1,68,0.00,,SKC,0.00,VWS V15.00,2014-10-31 08:08:00,
2014-10-31 03:13:00,28.9,19.7,30.30,East,90,3.6,7.0,68,0.00,,SKC,0.00,VWS V15.00,2014-10-31 08:13:00,
2014-10-31 03:18:00,28.9,20.1,30.30,NW,315,1.0,8.2,69,0.00,,SKC,0.00,VWS V15.00,2014-10-31 08:18:00,
2014-10-31 03:24:00,28.9,20.7,30.30,NNE,22,2.8,5.1,71,0.00,,SKC,0.00,VWS V15.00,2014-10-31 08:24:00,
2014-10-31 03:30:00,28.9,20.7,30.30,ESE,112,4.1,6.3,71,0.00,,SKC,0.00,VWS V15.00,2014-10-31 08:30:00,
2014-10-31 03:35:00,28.9,20.7,30.30,NNE,22,1.5,3.9,71,0.00,,SKC,0.00,VWS V15.00,2014-10-31 08:35:00,
2014-10-31 03:41:00,28.4,21.5,30.33,NNE,22,1.5,3.5,75,0.00,,SKC,0.00,VWS V15.00,2014-10-31 08:41:00,
2014-10-31 03:46:00,28.0,21.8,30.33,North,0,2.3,7.4,77,0.00,,SKC,0.00,VWS V15.00,2014-10-31 08:46:00,
2014-10-31 03:52:00,27.9,21.9,30.33,ENE,68,2.3,5.5,78,0.00,,SKC,0.00,VWS V15.00,2014-10-31 08:52:00,
2014-10-31 03:57:00,27.7,21.7,30.30,NNW,338,1.3,5.1,78,0.00,,SKC,0.00,VWS V15.00,2014-10-31 08:57:00,
2014-10-31 04:03:00,27.7,21.7,30.30,NNE,22,5.4,8.2,78,0.00,,SKC,0.00,VWS V15.00,2014-10-31 09:03:00,
2014-10-31 04:09:00,27.3,21.7,30.30,WSW,248,2.8,4.3,79,0.00,,SKC,0.00,VWS V15.00,2014-10-31 09:09:00,
2014-10-31 04:14:00,27.5,21.9,30.33,NNW,338,3.1,9.8,79,0.00,,SKC,0.00,VWS V15.00,2014-10-31 09:14:00,
2014-10-31 04:19:00,27.3,21.7,30.33,NNE,22,0.0,6.3,79,0.00,,SKC,0.00,VWS V15.00,2014-10-31 09:19:00,
2014-10-31 04:25:00,27.3,21.7,30.36,ENE,68,0.0,3.9,79,0.00,,SKC,0.00,VWS V15.00,2014-10-31 09:25:00,
2014-10-31 04:30:00,27.3,21.7,30.36,WNW,292,0.0,3.9,79,0.00,,SKC,0.00,VWS V15.00,2014-10-31 09:30:00,
2014-10-31 04:35:00,27.1,21.8,30.36,WNW,292,1.3,5.1,80,0.00,,SKC,0.00,VWS V15.00,2014-10-31 09:35:00,
2014-10-31 04:41:00,27.1,21.8,30.33,ENE,68,2.8,5.5,80,0.00,,SKC,0.00,VWS V15.00,2014-10-31 09:41:00,
2014-10-31 04:46:00,27.1,21.8,30.33,ENE,68,5.4,8.2,80,0.00,,SKC,0.00,VWS V15.00,2014-10-31 09:46:00,
2014-10-31 04:51:00,27.1,21.8,30.33,ENE,68,1.8,4.3,80,0.00,,SKC,0.00,VWS V15.00,2014-10-31 09:51:00,
2014-10-31 04:56:00,27.1,21.8,30.36,NNE,22,4.1,6.3,80,0.00,,SKC,0.00,VWS V15.00,2014-10-31 09:56:00,
2014-10-31 05:02:00,27.1,21.8,30.36,NE,45,0.0,4.7,80,0.00,,SKC,0.00,VWS V15.00,2014-10-31 10:02:00,
2014-10-31 05:07:00,27.1,22.1,30.36,NNW,338,1.5,5.9,81,0.00,,SKC,0.00,VWS V15.00,2014-10-31 10:07:00,
2014-10-31 05:12:00,27.0,21.9,30.36,NNW,338,2.3,4.7,81,0.00,,SKC,0.00,VWS V15.00,2014-10-31 10:12:00,
2014-10-31 05:17:00,26.8,22.0,30.36,NNW,338,1.8,5.1,82,0.00,,SKC,0.00,VWS V15.00,2014-10-31 10:17:00,
2014-10-31 05:23:00,26.6,21.9,30.36,WNW,292,0.0,3.9,82,0.00,,SKC,0.00,VWS V15.00,2014-10-31 10:23:00,
2014-10-31 05:28:00,26.6,21.6,30.36,NNE,22,0.0,4.7,81,0.00,,SKC,0.00,VWS V15.00,2014-10-31 10:28:00,
2014-10-31 05:34:00,26.6,21.6,30.36,NNW,338,2.3,3.5,81,0.00,,SKC,0.00,VWS V15.00,2014-10-31 10:34:00,
2014-10-31 05:40:00,26.4,21.4,30.36,NNW,338,4.1,6.3,81,0.00,,SKC,0.00,VWS V15.00,2014-10-31 10:40:00,
2014-10-31 05:45:00,26.4,21.4,30.36,NNE,22,1.3,2.7,81,0.00,,SKC,0.00,VWS V15.00,2014-10-31 10:45:00,
2014-10-31 05:50:00,26.2,21.2,30.36,NNW,338,1.5,5.1,81,0.00,,SKC,0.00,VWS V15.00,2014-10-31 10:50:00,
2014-10-31 05:56:00,26.2,21.2,30.36,NNW,338,0.0,3.5,81,0.00,,SKC,0.00,VWS V15.00,2014-10-31 10:56:00,
2014-10-31 06:02:00,26.1,21.0,30.36,WNW,292,3.3,5.1,81,0.00,,SKC,0.00,VWS V15.00,2014-10-31 11:02:00,
2014-10-31 06:08:00,26.1,21.0,30.36,NNE,22,1.3,2.7,81,0.00,,SKC,0.00,VWS V15.00,2014-10-31 11:08:00,
2014-10-31 06:13:00,26.1,21.0,30.39,NW,315,0.0,0.0,81,0.00,,SKC,0.00,VWS V15.00,2014-10-31 11:13:00,
2014-10-31 06:18:00,25.9,20.9,30.39,NNW,338,2.8,5.1,81,0.00,,SKC,0.00,VWS V15.00,2014-10-31 11:18:00,
2014-10-31 06:24:00,25.9,20.9,30.39,NNW,338,0.0,0.0,81,0.00,,SKC,0.00,VWS V15.00,2014-10-31 11:24:00,
2014-10-31 06:30:00,25.9,20.9,30.36,NNW,338,1.8,3.5,81,0.00,,SKC,0.00,VWS V15.00,2014-10-31 11:30:00,
2014-10-31 06:36:00,25.9,20.9,30.36,NNW,338,1.8,5.1,81,0.00,,SKC,0.00,VWS V15.00,2014-10-31 11:36:00,
2014-10-31 06:41:00,25.9,20.9,30.36,NNW,338,3.1,5.5,81,0.00,,SKC,0.00,VWS V15.00,2014-10-31 11:41:00,
2014-10-31 06:47:00,25.9,20.9,30.36,NE,45,0.0,2.3,81,0.00,,SKC,0.00,VWS V15.00,2014-10-31 11:47:00,
2014-10-31 06:52:00,25.7,20.7,30.36,NW,315,3.1,5.5,81,0.00,,SKC,0.00,VWS V15.00,2014-10-31 11:52:00,
2014-10-31 06:58:00,25.7,20.7,30.36,NNW,338,2.8,5.1,81,0.00,,SKC,0.00,VWS V15.00,2014-10-31 11:58:00,
2014-10-31 07:04:00,25.7,20.7,30.36,NW,315,1.8,7.0,81,0.00,,SKC,0.00,VWS V15.00,2014-10-31 12:04:00,
2014-10-31 07:09:00,25.7,20.7,30.36,NNE,22,1.3,4.7,81,0.00,,SKC,0.00,VWS V15.00,2014-10-31 12:09:00,
2014-10-31 07:15:00,25.7,21.0,30.36,NNW,338,0.0,2.3,82,0.00,,SKC,0.00,VWS V15.00,2014-10-31 12:15:00,
2014-10-31 07:20:00,25.5,20.8,30.36,NNE,22,0.0,3.5,82,0.00,,SKC,0.00,VWS V15.00,2014-10-31 12:20:00,
2014-10-31 07:26:00,25.5,20.8,30.39,NNE,22,1.3,5.1,82,0.00,,SKC,0.00,VWS V15.00,2014-10-31 12:26:00,
2014-10-31 07:32:00,25.5,21.1,30.39,NNW,338,0.0,4.3,83,0.00,,SKC,0.00,VWS V15.00,2014-10-31 12:32:00,
2014-10-31 07:37:00,25.5,21.1,30.39,WNW,292,0.0,0.0,83,0.00,,SKC,0.00,VWS V15.00,2014-10-31 12:37:00,
2014-10-31 07:43:00,25.5,21.1,30.39,NNW,338,0.0,0.0,83,0.00,,SKC,0.00,VWS V15.00,2014-10-31 12:43:00,
2014-10-31 07:48:00,25.3,20.9,30.39,NW,315,0.0,0.0,83,0.00,,SKC,0.00,VWS V15.00,2014-10-31 12:48:00,
2014-10-31 07:54:00,25.3,20.9,30.39,NNW,338,0.0,0.0,83,0.00,,SKC,0.00,VWS V15.00,2014-10-31 12:54:00,
2014-10-31 08:00:00,25.5,21.1,30.39,NNE,22,0.0,0.0,83,0.00,,SKC,0.00,VWS V15.00,2014-10-31 13:00:00,
2014-10-31 08:05:00,25.7,21.3,30.39,WNW,292,0.0,3.9,83,0.00,,SKC,0.00,VWS V15.00,2014-10-31 13:05:00,
2014-10-31 08:10:00,25.9,21.4,30.39,ENE,68,1.3,2.0,83,0.00,,SKC,0.00,VWS V15.00,2014-10-31 13:10:00,
2014-10-31 08:16:00,26.2,21.8,30.39,NNE,22,3.3,5.1,83,0.00,,SKC,0.00,VWS V15.00,2014-10-31 13:16:00,
2014-10-31 08:21:00,26.4,21.7,30.39,NNW,338,0.0,3.5,82,0.00,,SKC,0.00,VWS V15.00,2014-10-31 13:21:00,
2014-10-31 08:26:00,26.6,21.6,30.39,East,90,1.0,3.5,81,0.00,,SKC,0.00,VWS V15.00,2014-10-31 13:26:00,
2014-10-31 08:32:00,27.1,21.8,30.39,East,90,1.8,4.7,80,0.00,,SKC,0.00,VWS V15.00,2014-10-31 13:32:00,
2014-10-31 08:37:00,27.7,22.0,30.39,ESE,112,2.3,3.9,79,0.00,,SKC,0.00,VWS V15.00,2014-10-31 13:37:00,
2014-10-31 08:43:00,27.9,22.2,30.39,NNE,22,2.3,8.2,79,0.00,,SKC,0.00,VWS V15.00,2014-10-31 13:43:00,
2014-10-31 08:49:00,28.0,21.8,30.39,ESE,112,1.8,6.3,77,0.00,,SKC,0.00,VWS V15.00,2014-10-31 13:49:00,
2014-10-31 08:54:00,28.4,21.5,30.39,NNW,338,3.1,8.6,75,0.00,,SKC,0.00,VWS V15.00,2014-10-31 13:54:00,
2014-10-31 09:00:00,28.6,21.4,30.41,NNW,338,3.1,6.7,74,0.00,,SKC,0.00,VWS V15.00,2014-10-31 14:00:00,
2014-10-31 09:05:00,28.9,21.7,30.41,NNE,22,3.9,5.9,74,0.00,,SKC,0.00,VWS V15.00,2014-10-31 14:05:00,
2014-10-31 09:10:00,29.1,21.9,30.41,WSW,248,2.3,5.5,74,0.00,,SKC,0.00,VWS V15.00,2014-10-31 14:10:00,
2014-10-31 09:15:00,29.3,21.4,30.41,ESE,112,3.9,5.9,72,0.00,,SKC,0.00,VWS V15.00,2014-10-31 14:15:00,
2014-10-31 09:21:00,29.5,21.6,30.41,NNE,22,7.2,11.0,72,0.00,,SKC,0.00,VWS V15.00,2014-10-31 14:21:00,
2014-10-31 09:26:00,29.7,21.4,30.41,NNW,338,2.6,3.9,71,0.00,,SKC,0.00,VWS V15.00,2014-10-31 14:26:00,
2014-10-31 09:32:00,30.0,21.4,30.41,NNE,22,4.6,7.0,70,0.00,,SKC,0.00,VWS V15.00,2014-10-31 14:32:00,
2014-10-31 09:37:00,30.2,21.3,30.41,WSW,248,1.3,5.9,69,0.00,,SKC,0.00,VWS V15.00,2014-10-31 14:37:00,
2014-10-31 09:43:00,30.4,21.4,30.41,SE,135,2.8,4.7,69,0.00,,SKC,0.00,VWS V15.00,2014-10-31 14:43:00,
2014-10-31 09:49:00,30.6,21.3,30.41,NNE,22,0.0,2.0,68,0.00,,SKC,0.00,VWS V15.00,2014-10-31 14:49:00,
2014-10-31 09:54:00,30.9,21.6,30.44,NNW,338,1.8,9.4,68,0.00,,SKC,0.00,VWS V15.00,2014-10-31 14:54:00,
2014-10-31 10:00:00,30.9,20.5,30.44,NNW,338,1.8,5.1,65,0.00,,SKC,0.00,VWS V15.00,2014-10-31 15:00:00,
2014-10-31 10:06:00,31.3,21.3,30.44,NNE,22,0.0,2.3,66,0.00,,SKC,0.00,VWS V15.00,2014-10-31 15:06:00,
2014-10-31 10:11:00,31.5,20.3,30.41,NNW,338,0.0,4.3,63,0.00,,SKC,0.00,VWS V15.00,2014-10-31 15:11:00,
2014-10-31 10:17:00,31.6,20.9,30.41,NNE,22,3.6,11.0,64,0.00,,SKC,0.00,VWS V15.00,2014-10-31 15:17:00,
2014-10-31 10:22:00,31.8,20.7,30.41,NE,45,4.4,8.6,63,0.00,,SKC,0.00,VWS V15.00,2014-10-31 15:22:00,
2014-10-31 10:28:00,31.8,19.9,30.41,NNW,338,4.4,6.7,61,0.00,,SKC,0.00,VWS V15.00,2014-10-31 15:28:00,
2014-10-31 10:33:00,31.8,19.9,30.41,ENE,68,3.1,5.5,61,0.00,,SKC,0.00,VWS V15.00,2014-10-31 15:33:00,
2014-10-31 10:38:00,32.2,20.6,30.41,NNE,22,4.4,6.7,62,0.00,,SKC,0.00,VWS V15.00,2014-10-31 15:38:00,
2014-10-31 10:43:00,32.0,19.3,30.41,NE,45,2.3,6.3,59,0.00,,SKC,0.00,VWS V15.00,2014-10-31 15:43:00,
2014-10-31 10:49:00,32.2,19.1,30.41,NNE,22,2.3,5.1,58,0.00,,SKC,0.00,VWS V15.00,2014-10-31 15:49:00,
2014-10-31 10:55:00,32.2,19.1,30.44,ENE,68,4.4,7.0,58,0.00,,SKC,0.00,VWS V15.00,2014-10-31 15:55:00,
2014-10-31 11:00:00,32.0,17.7,30.44,NNE,22,2.6,8.2,55,0.00,,SKC,0.00,VWS V15.00,2014-10-31 16:00:00,
2014-10-31 11:06:00,32.2,18.3,30.44,NNE,22,4.9,10.2,56,0.00,,SKC,0.00,VWS V15.00,2014-10-31 16:06:00,
2014-10-31 11:11:00,33.1,19.1,30.44,North,0,3.6,10.2,56,0.00,,SKC,0.00,VWS V15.00,2014-10-31 16:11:00,
2014-10-31 11:17:00,33.3,19.3,30.44,ENE,68,3.6,5.5,56,0.00,,SKC,0.00,VWS V15.00,2014-10-31 16:17:00,
2014-10-31 11:23:00,33.3,18.4,30.44,East,90,4.4,7.4,54,0.00,,SKC,0.00,VWS V15.00,2014-10-31 16:23:00,
2014-10-31 11:28:00,33.6,18.3,30.44,NE,45,2.8,9.8,53,0.00,,SKC,0.00,VWS V15.00,2014-10-31 16:28:00,
2014-10-31 11:34:00,34.2,18.8,30.44,NNW,338,2.8,4.3,53,0.00,,SKC,0.00,VWS V15.00,2014-10-31 16:34:00,
2014-10-31 11:39:00,34.2,18.8,30.44,NNW,338,2.8,6.3,53,0.00,,SKC,0.00,VWS V15.00,2014-10-31 16:39:00,
2014-10-31 11:45:00,34.2,19.3,30.44,SSW,202,3.3,5.1,54,0.00,,SKC,0.00,VWS V15.00,2014-10-31 16:45:00,
2014-10-31 11:51:00,34.0,18.7,30.44,NNE,22,1.5,4.7,53,0.00,,SKC,0.00,VWS V15.00,2014-10-31 16:51:00,
2014-10-31 11:56:00,34.3,19.4,30.44,NNW,338,3.3,5.5,54,0.00,,SKC,0.00,VWS V15.00,2014-10-31 16:56:00,
2014-10-31 12:01:00,34.5,19.2,30.44,North,0,4.1,9.4,53,0.00,,SKC,0.00,VWS V15.00,2014-10-31 17:01:00,
2014-10-31 12:07:00,34.7,19.3,30.44,NNE,22,4.1,7.4,53,0.00,,SKC,0.00,VWS V15.00,2014-10-31 17:07:00,